| time (UTC) | temp F | wind direction | speed MPH | gust MPH | rain 1hr in | rain 24hr in | rain mn in | humidity % | barometer mb |
| 20260507163951 | 54 | 360 | 2.0 | 5.0 | 0.00 | 0.00 | 0.00 | 44 | 1014.9 |
| 20260507163432 | 53 | 275 | 1.0 | 6.0 | 0.00 | 0.00 | 0.00 | 43 | 1015.0 |
| 20260507162931 | 54 | 360 | 2.0 | 6.0 | 0.00 | 0.00 | 0.00 | 42 | 1015.0 |
| 20260507162432 | 54 | 360 | 2.0 | 9.0 | 0.00 | 0.00 | 0.00 | 42 | 1015.1 |
| 20260507161933 | 53 | 360 | 3.0 | 9.0 | 0.00 | 0.00 | 0.00 | 42 | 1015.2 |
| 20260507161433 | 53 | 360 | 2.0 | 6.0 | 0.00 | 0.00 | 0.00 | 44 | 1015.2 |
| 20260507160934 | 53 | 360 | 3.0 | 5.0 | 0.00 | 0.00 | 0.00 | 46 | 1015.2 |
| 20260507160434 | 53 | 360 | 3.0 | 6.0 | 0.00 | 0.00 | 0.00 | 44 | 1015.2 |
| 20260507155933 | 52 | 360 | 1.0 | 6.0 | 0.00 | 0.00 | 0.00 | 46 | 1015.1 |
| 20260507155431 | 52 | 360 | 2.0 | 6.0 | 0.00 | 0.00 | 0.00 | 45 | 1015.1 |
| 20260507154953 | 52 | 360 | 3.0 | 6.0 | 0.00 | 0.00 | 0.00 | 44 | 1015.3 |
| 20260507154432 | 52 | 360 | 1.0 | 6.0 | 0.00 | 0.00 | 0.00 | 46 | 1015.3 |
| 20260507153933 | 52 | 360 | 2.0 | 8.0 | 0.00 | 0.00 | 0.00 | 45 | 1015.4 |
| 20260507153433 | 51 | 360 | 2.0 | 5.0 | 0.00 | 0.00 | 0.00 | 47 | 1015.5 |
| 20260507152934 | 51 | 360 | 2.0 | 5.0 | 0.00 | 0.00 | 0.00 | 45 | 1015.5 |
| 20260507152449 | 51 | 360 | 2.0 | 5.0 | 0.00 | 0.00 | 0.00 | 46 | 1015.6 |
| 20260507151948 | 51 | 360 | 2.0 | 6.0 | 0.00 | 0.00 | 0.00 | 47 | 1015.5 |
| 20260507151427 | 51 | 360 | 3.0 | 6.0 | 0.00 | 0.00 | 0.00 | 48 | 1015.4 |
| 20260507150925 | 50 | 360 | 2.0 | 5.0 | 0.00 | 0.00 | 0.00 | 46 | 1015.3 |
| 20260507150425 | 50 | 360 | 2.0 | 5.0 | 0.00 | 0.00 | 0.00 | 47 | 1015.3 |
| 20260507145926 | 50 | 360 | 1.0 | 4.0 | 0.00 | 0.00 | 0.00 | 48 | 1015.3 |
| 20260507145427 | 50 | 360 | 3.0 | 8.0 | 0.00 | 0.00 | 0.00 | 47 | 1015.1 |
| 20260507144927 | 50 | 360 | 1.0 | 6.0 | 0.00 | 0.00 | 0.00 | 48 | 1015.1 |
| 20260507144424 | 50 | 360 | 3.0 | 6.0 | 0.00 | 0.00 | 0.00 | 48 | 1015.2 |
| 20260507143923 | 49 | 360 | 2.0 | 6.0 | 0.00 | 0.00 | 0.00 | 49 | 1015.2 |
| 20260507143424 | 49 | 360 | 2.0 | 6.0 | 0.00 | 0.00 | 0.00 | 49 | 1015.3 |
| 20260507142928 | 49 | 360 | 2.0 | 6.0 | 0.00 | 0.00 | 0.00 | 50 | 1015.4 |
| 20260507142427 | 49 | 360 | 3.0 | 5.0 | 0.00 | 0.00 | 0.00 | 50 | 1015.4 |
| 20260507141927 | 49 | 360 | 2.0 | 9.0 | 0.00 | 0.00 | 0.00 | 50 | 1015.3 |
| 20260507141429 | 49 | 360 | 4.0 | 9.0 | 0.00 | 0.00 | 0.00 | 50 | 1015.2 |
| 20260507140950 | 49 | 360 | 3.0 | 6.0 | 0.00 | 0.00 | 0.00 | 52 | 1015.2 |
| 20260507140429 | 49 | 360 | 1.0 | 5.0 | 0.00 | 0.00 | 0.00 | 54 | 1015.2 |
| 20260507135930 | 49 | 360 | 3.0 | 5.0 | 0.00 | 0.00 | 0.00 | 53 | 1015.3 |
| 20260507135430 | 48 | 360 | 1.0 | 6.0 | 0.00 | 0.00 | 0.00 | 54 | 1015.2 |
| 20260507134932 | 48 | 360 | 3.0 | 6.0 | 0.00 | 0.00 | 0.00 | 51 | 1015.1 |
| 20260507134434 | 48 | 360 | 2.0 | 5.0 | 0.00 | 0.00 | 0.00 | 52 | 1015.1 |
| 20260507133934 | 48 | 360 | 1.0 | 5.0 | 0.00 | 0.00 | 0.00 | 54 | 1015.1 |
| 20260507133431 | 48 | 360 | 2.0 | 4.0 | 0.00 | 0.00 | 0.00 | 53 | 1015.2 |
| 20260507132954 | 48 | 360 | 2.0 | 5.0 | 0.00 | 0.00 | 0.00 | 53 | 1015.2 |
| 20260507132431 | 48 | 360 | 1.0 | 5.0 | 0.00 | 0.00 | 0.00 | 54 | 1015.2 |
| 20260507131933 | 48 | 360 | 2.0 | 4.0 | 0.00 | 0.00 | 0.00 | 56 | 1015.2 |
| 20260507131433 | 47 | 360 | 1.0 | 3.0 | 0.00 | 0.00 | 0.00 | 56 | 1015.1 |
| 20260507130954 | 47 | 360 | 1.0 | 3.0 | 0.00 | 0.00 | 0.00 | 59 | 1015.2 |
| 20260507130431 | 46 | 360 | 1.0 | 5.0 | 0.00 | 0.00 | 0.00 | 58 | 1015.1 |
| 20260507125932 | 46 | 360 | 2.0 | 5.0 | 0.00 | 0.00 | 0.00 | 61 | 1015.1 |
| 20260507125433 | 45 | 360 | 0.0 | 4.0 | 0.00 | 0.00 | 0.00 | 64 | 1015.0 |
| 20260507124931 | 44 | 360 | 0.0 | 4.0 | 0.00 | 0.00 | 0.00 | 66 | 1015.0 |
| 20260507124430 | 44 | 360 | 0.0 | 3.0 | 0.00 | 0.00 | 0.00 | 69 | 1015.0 |
| 20260507123929 | 43 | 360 | 1.0 | 4.0 | 0.00 | 0.00 | 0.00 | 69 | 1015.0 |
| 20260507123429 | 42 | 360 | 1.0 | 4.0 | 0.00 | 0.00 | 0.00 | 73 | 1015.0 |
| 20260507122928 | 41 | 360 | 0.0 | 3.0 | 0.00 | 0.00 | 0.00 | 76 | 1015.0 |
| 20260507122429 | 40 | 360 | 0.0 | 3.0 | 0.00 | 0.00 | 0.00 | 79 | 1015.0 |
| 20260507121929 | 39 | 360 | 0.0 | 0.0 | 0.00 | 0.00 | 0.00 | 83 | 1015.1 |
| 20260507121450 | 38 | 360 | 0.0 | 0.0 | 0.00 | 0.00 | 0.00 | 85 | 1015.0 |
| 20260507120928 | 37 | 360 | 0.0 | 0.0 | 0.00 | 0.00 | 0.00 | 86 | 1015.1 |
| 20260507120430 | 37 | 360 | 0.0 | 0.0 | 0.00 | 0.00 | 0.00 | 86 | 1015.1 |
| 20260507115931 | 36 | 360 | 0.0 | 0.0 | 0.00 | 0.00 | 0.00 | 86 | 1015.2 |
| 20260507115432 | 36 | 360 | 0.0 | 0.0 | 0.00 | 0.00 | 0.00 | 85 | 1015.1 |
| 20260507114931 | 35 | 360 | 0.0 | 0.0 | 0.00 | 0.00 | 0.00 | 85 | 1015.0 |
| 20260507114432 | 35 | 360 | 0.0 | 0.0 | 0.00 | 0.00 | 0.00 | 84 | 1015.0 |
| 20260507113932 | 35 | 360 | 0.0 | 0.0 | 0.00 | 0.00 | 0.00 | 84 | 1014.9 |
| 20260507113432 | 35 | 360 | 0.0 | 0.0 | 0.00 | 0.00 | 0.00 | 83 | 1014.9 |
| 20260507112932 | 35 | 360 | 0.0 | 0.0 | 0.00 | 0.00 | 0.00 | 82 | 1015.0 |
| 20260507112453 | 35 | 360 | 0.0 | 0.0 | 0.00 | 0.00 | 0.00 | 82 | 1015.0 |
| 20260507111952 | 35 | 360 | 0.0 | 0.0 | 0.00 | 0.00 | 0.00 | 81 | 1015.0 |
| 20260507111430 | 35 | 360 | 0.0 | 0.0 | 0.00 | 0.00 | 0.00 | 80 | 1014.8 |
| 20260507110951 | 35 | 360 | 0.0 | 0.0 | 0.00 | 0.00 | 0.00 | 80 | 1014.8 |
| 20260507110430 | 35 | 360 | 0.0 | 0.0 | 0.00 | 0.00 | 0.00 | 80 | 1014.7 |
| 20260507105951 | 35 | 360 | 0.0 | 0.0 | 0.00 | 0.00 | 0.00 | 79 | 1014.6 |
| 20260507105431 | 35 | 360 | 0.0 | 0.0 | 0.00 | 0.00 | 0.00 | 79 | 1014.6 |
| 20260507104929 | 35 | 360 | 0.0 | 0.0 | 0.00 | 0.00 | 0.00 | 79 | 1014.6 |
| 20260507104426 | 35 | 360 | 0.0 | 0.0 | 0.00 | 0.00 | 0.00 | 79 | 1014.4 |
| 20260507103923 | 35 | 360 | 0.0 | 0.0 | 0.00 | 0.00 | 0.00 | 79 | 1014.4 |
| 20260507103423 | 36 | 360 | 0.0 | 0.0 | 0.00 | 0.00 | 0.00 | 79 | 1014.4 |
| 20260507102922 | 36 | 360 | 0.0 | 0.0 | 0.00 | 0.00 | 0.00 | 79 | 1014.3 |
| 20260507102423 | 36 | 360 | 0.0 | 0.0 | 0.00 | 0.00 | 0.00 | 79 | 1014.3 |
| 20260507101922 | 36 | 360 | 0.0 | 0.0 | 0.00 | 0.00 | 0.00 | 79 | 1014.4 |
| 20260507100922 | 36 | 360 | 0.0 | 0.0 | 0.00 | 0.00 | 0.00 | 79 | 1014.3 |
| 20260507100423 | 36 | 360 | 0.0 | 0.0 | 0.00 | 0.00 | 0.00 | 78 | 1014.3 |
| 20260507095922 | 36 | 360 | 0.0 | 0.0 | 0.00 | 0.00 | 0.00 | 77 | 1014.3 |
| 20260507095423 | 37 | 360 | 0.0 | 0.0 | 0.00 | 0.00 | 0.00 | 77 | 1014.3 |
| 20260507094925 | 37 | 360 | 0.0 | 0.0 | 0.00 | 0.00 | 0.00 | 77 | 1014.3 |
| 20260507094426 | 37 | 360 | 0.0 | 0.0 | 0.00 | 0.00 | 0.00 | 77 | 1014.3 |
| 20260507093926 | 37 | 360 | 0.0 | 0.0 | 0.00 | 0.00 | 0.00 | 77 | 1014.3 |
| 20260507093446 | 37 | 360 | 0.0 | 0.0 | 0.00 | 0.00 | 0.00 | 76 | 1014.3 |
| 20260507092925 | 37 | 360 | 0.0 | 0.0 | 0.00 | 0.00 | 0.00 | 76 | 1014.3 |
| 20260507092444 | 37 | 360 | 0.0 | 0.0 | 0.00 | 0.00 | 0.00 | 75 | 1014.3 |
| 20260507091924 | 38 | 360 | 0.0 | 0.0 | 0.00 | 0.00 | 0.00 | 75 | 1014.3 |
| 20260507091424 | 38 | 360 | 0.0 | 0.0 | 0.00 | 0.00 | 0.00 | 75 | 1014.3 |
| 20260507090923 | 38 | 360 | 0.0 | 0.0 | 0.00 | 0.00 | 0.00 | 75 | 1014.4 |
| 20260507090422 | 38 | 360 | 0.0 | 0.0 | 0.00 | 0.00 | 0.00 | 74 | 1014.5 |
| 20260507085921 | 38 | 360 | 0.0 | 0.0 | 0.00 | 0.00 | 0.00 | 74 | 1014.6 |
| 20260507085420 | 39 | 360 | 0.0 | 0.0 | 0.00 | 0.00 | 0.00 | 73 | 1014.6 |
| 20260507084920 | 39 | 360 | 0.0 | 0.0 | 0.00 | 0.00 | 0.00 | 73 | 1014.7 |
| 20260507084422 | 39 | 360 | 0.0 | 0.0 | 0.00 | 0.00 | 0.00 | 72 | 1014.6 |
| 20260507083942 | 39 | 360 | 0.0 | 0.0 | 0.00 | 0.00 | 0.00 | 72 | 1014.5 |
| 20260507083440 | 39 | 360 | 0.0 | 0.0 | 0.00 | 0.00 | 0.00 | 71 | 1014.5 |
| 20260507082920 | 40 | 360 | 0.0 | 0.0 | 0.00 | 0.00 | 0.00 | 71 | 1014.6 |
| 20260507082420 | 40 | 360 | 0.0 | 0.0 | 0.00 | 0.00 | 0.00 | 71 | 1014.6 |
| 20260507081920 | 40 | 360 | 0.0 | 0.0 | 0.00 | 0.00 | 0.00 | 71 | 1014.5 |
| 20260507081419 | 40 | 360 | 0.0 | 0.0 | 0.00 | 0.00 | 0.00 | 70 | 1014.5 |
| 20260507080917 | 41 | 360 | 0.0 | 0.0 | 0.00 | 0.00 | 0.00 | 70 | 1014.4 |
| 20260507080417 | 41 | 360 | 0.0 | 0.0 | 0.00 | 0.00 | 0.00 | 69 | 1014.5 |
| 20260507075917 | 41 | 360 | 0.0 | 0.0 | 0.00 | 0.00 | 0.00 | 69 | 1014.4 |
| 20260507075436 | 41 | 360 | 0.0 | 0.0 | 0.00 | 0.00 | 0.00 | 69 | 1014.4 |
| 20260507074915 | 42 | 360 | 0.0 | 0.0 | 0.00 | 0.00 | 0.00 | 68 | 1014.4 |
| 20260507074416 | 42 | 360 | 0.0 | 0.0 | 0.00 | 0.00 | 0.00 | 68 | 1014.5 |
| 20260507073938 | 42 | 360 | 0.0 | 0.0 | 0.00 | 0.00 | 0.00 | 68 | 1014.4 |
| 20260507073416 | 42 | 360 | 0.0 | 0.0 | 0.00 | 0.00 | 0.00 | 67 | 1014.3 |
| 20260507072916 | 42 | 360 | 0.0 | 0.0 | 0.00 | 0.00 | 0.00 | 66 | 1014.4 |
| 20260507072436 | 42 | 360 | 0.0 | 0.0 | 0.00 | 0.00 | 0.00 | 66 | 1014.4 |
| 20260507071933 | 43 | 360 | 0.0 | 0.0 | 0.00 | 0.00 | 0.00 | 65 | 1014.4 |
| 20260507071452 | 43 | 360 | 0.0 | 0.0 | 0.00 | 0.00 | 0.00 | 65 | 1014.4 |
| 20260507070931 | 43 | 360 | 0.0 | 0.0 | 0.00 | 0.00 | 0.00 | 65 | 1014.5 |
| 20260507070431 | 43 | 360 | 0.0 | 0.0 | 0.00 | 0.00 | 0.00 | 65 | 1014.6 |
| 20260507065949 | 43 | 360 | 0.0 | 0.0 | 0.00 | 0.00 | 0.00 | 64 | 1014.5 |
| 20260507065427 | 43 | 360 | 0.0 | 1.0 | 0.00 | 0.00 | 0.00 | 63 | 1014.5 |
| 20260507064927 | 43 | 360 | 0.0 | 1.0 | 0.00 | 0.00 | 0.00 | 63 | 1014.5 |
| 20260507064427 | 43 | 360 | 0.0 | 0.0 | 0.00 | 0.00 | 0.00 | 63 | 1014.6 |
| 20260507063927 | 44 | 360 | 0.0 | 0.0 | 0.00 | 0.00 | 0.00 | 62 | 1014.5 |
| 20260507063427 | 44 | 360 | 0.0 | 0.0 | 0.00 | 0.00 | 0.00 | 62 | 1014.6 |
| 20260507062926 | 44 | 360 | 0.0 | 0.0 | 0.00 | 0.00 | 0.00 | 62 | 1014.6 |
| 20260507062423 | 44 | 360 | 0.0 | 2.0 | 0.00 | 0.00 | 0.00 | 61 | 1014.6 |
| 20260507061923 | 44 | 360 | 0.0 | 1.0 | 0.00 | 0.00 | 0.00 | 61 | 1014.7 |
| 20260507061425 | 44 | 360 | 0.0 | 1.0 | 0.00 | 0.00 | 0.00 | 61 | 1014.6 |
| 20260507060927 | 44 | 360 | 0.0 | 3.0 | 0.00 | 0.00 | 0.00 | 60 | 1014.6 |
| 20260507060426 | 44 | 360 | 1.0 | 3.0 | 0.00 | 0.00 | 0.00 | 60 | 1014.6 |
| 20260507055923 | 44 | 360 | 0.0 | 0.0 | 0.00 | 0.00 | 0.00 | 60 | 1014.6 |
| 20260507055423 | 44 | 360 | 0.0 | 0.0 | 0.00 | 0.00 | 0.00 | 60 | 1014.7 |
| 20260507054921 | 45 | 360 | 0.0 | 0.0 | 0.00 | 0.00 | 0.00 | 60 | 1014.7 |
| 20260507054439 | 45 | 360 | 0.0 | 0.0 | 0.00 | 0.00 | 0.00 | 60 | 1014.7 |
| 20260507053918 | 45 | 360 | 0.0 | 0.0 | 0.00 | 0.00 | 0.00 | 59 | 1014.7 |
| 20260507053417 | 45 | 360 | 0.0 | 1.0 | 0.00 | 0.00 | 0.00 | 60 | 1014.7 |
| 20260507052918 | 45 | 360 | 0.0 | 1.0 | 0.00 | 0.00 | 0.00 | 60 | 1014.7 |
| 20260507052418 | 45 | 360 | 0.0 | 2.0 | 0.00 | 0.00 | 0.00 | 60 | 1014.7 |
| 20260507051917 | 45 | 360 | 0.0 | 2.0 | 0.00 | 0.00 | 0.00 | 59 | 1014.7 |
| 20260507051416 | 45 | 360 | 0.0 | 2.0 | 0.00 | 0.00 | 0.00 | 59 | 1014.7 |
| 20260507050917 | 46 | 360 | 0.0 | 2.0 | 0.00 | 0.00 | 0.00 | 59 | 1014.7 |
| 20260507050417 | 46 | 360 | 0.0 | 0.0 | 0.00 | 0.00 | 0.00 | 59 | 1014.7 |
| 20260507045933 | 46 | 360 | 0.0 | 0.0 | 0.00 | 0.00 | 0.00 | 59 | 1014.6 |
| 20260507045433 | 46 | 360 | 0.0 | 0.0 | 0.00 | 0.00 | 0.00 | 59 | 1014.7 |
| 20260507044932 | 46 | 360 | 0.0 | 2.0 | 0.00 | 0.00 | 0.00 | 58 | 1014.6 |
| 20260507044431 | 46 | 360 | 0.0 | 2.0 | 0.00 | 0.00 | 0.00 | 58 | 1014.6 |
| 20260507043931 | 46 | 360 | 0.0 | 0.0 | 0.00 | 0.00 | 0.00 | 58 | 1014.6 |
| 20260507043431 | 47 | 360 | 0.0 | 0.0 | 0.00 | 0.00 | 0.00 | 57 | 1014.5 |
| 20260507042931 | 47 | 360 | 0.0 | 1.0 | 0.00 | 0.00 | 0.00 | 57 | 1014.6 |
| 20260507042450 | 47 | 360 | 0.0 | 2.0 | 0.00 | 0.00 | 0.00 | 56 | 1014.5 |
| 20260507041929 | 47 | 360 | 0.0 | 4.0 | 0.00 | 0.00 | 0.00 | 56 | 1014.5 |
| 20260507041428 | 47 | 360 | 1.0 | 4.0 | 0.00 | 0.00 | 0.00 | 56 | 1014.4 |
| 20260507040927 | 47 | 360 | 1.0 | 2.0 | 0.00 | 0.00 | 0.00 | 56 | 1014.5 |
| 20260507040427 | 48 | 360 | 0.0 | 2.0 | 0.00 | 0.00 | 0.00 | 56 | 1014.5 |
| 20260507035927 | 48 | 360 | 0.0 | 2.0 | 0.00 | 0.00 | 0.00 | 55 | 1014.5 |
| 20260507035427 | 48 | 360 | 1.0 | 2.0 | 0.00 | 0.00 | 0.00 | 55 | 1014.6 |
| 20260507034928 | 48 | 360 | 0.0 | 2.0 | 0.00 | 0.00 | 0.00 | 56 | 1014.6 |
| 20260507034429 | 48 | 360 | 0.0 | 2.0 | 0.00 | 0.00 | 0.00 | 55 | 1014.6 |
| 20260507033930 | 49 | 360 | 1.0 | 3.0 | 0.00 | 0.00 | 0.00 | 54 | 1014.6 |
| 20260507033453 | 49 | 360 | 1.0 | 5.0 | 0.00 | 0.00 | 0.00 | 54 | 1014.6 |
| 20260507032930 | 49 | 360 | 1.0 | 5.0 | 0.00 | 0.00 | 0.00 | 53 | 1014.6 |
| 20260507032430 | 49 | 360 | 1.0 | 4.0 | 0.00 | 0.00 | 0.00 | 53 | 1014.6 |
| 20260507031931 | 49 | 360 | 0.0 | 4.0 | 0.00 | 0.00 | 0.00 | 52 | 1014.5 |
| 20260507031432 | 50 | 360 | 0.0 | 3.0 | 0.00 | 0.00 | 0.00 | 52 | 1014.4 |
| 20260507030932 | 50 | 360 | 1.0 | 3.0 | 0.00 | 0.00 | 0.00 | 52 | 1014.4 |
| 20260507030453 | 50 | 360 | 0.0 | 2.0 | 0.00 | 0.00 | 0.00 | 51 | 1014.4 |
| 20260507025931 | 50 | 360 | 1.0 | 4.0 | 0.00 | 0.00 | 0.00 | 51 | 1014.3 |
| 20260507025431 | 50 | 360 | 1.0 | 4.0 | 0.00 | 0.00 | 0.00 | 50 | 1014.2 |
| 20260507024932 | 50 | 360 | 0.0 | 0.0 | 0.00 | 0.00 | 0.00 | 51 | 1014.1 |
| 20260507024415 | 50 | 360 | 0.0 | 0.0 | 0.00 | 0.00 | 0.00 | 50 | 1014.1 |
| 20260507023916 | 50 | 360 | 0.0 | 0.0 | 0.00 | 0.00 | 0.00 | 50 | 1014.2 |
| 20260507023417 | 50 | 360 | 0.0 | 0.0 | 0.00 | 0.00 | 0.00 | 49 | 1014.1 |
| 20260507022940 | 50 | 360 | 0.0 | 0.0 | 0.00 | 0.00 | 0.00 | 50 | 1014.1 |
| 20260507022420 | 51 | 360 | 0.0 | 0.0 | 0.00 | 0.00 | 0.00 | 49 | 1014.0 |
| 20260507021920 | 51 | 360 | 0.0 | 4.0 | 0.00 | 0.00 | 0.00 | 49 | 1014.0 |
| 20260507021424 | 51 | 360 | 1.0 | 4.0 | 0.00 | 0.00 | 0.00 | 49 | 1013.9 |
| 20260507020925 | 51 | 360 | 1.0 | 3.0 | 0.00 | 0.00 | 0.00 | 49 | 1013.9 |
| 20260507020424 | 51 | 360 | 0.0 | 4.0 | 0.00 | 0.00 | 0.00 | 48 | 1013.9 |
| 20260507015927 | 51 | 360 | 0.0 | 4.0 | 0.00 | 0.00 | 0.00 | 49 | 1013.7 |
| 20260507015428 | 51 | 360 | 0.0 | 4.0 | 0.00 | 0.00 | 0.00 | 49 | 1013.7 |
| 20260507014928 | 51 | 360 | 1.0 | 3.0 | 0.00 | 0.00 | 0.00 | 48 | 1013.5 |
| 20260507014428 | 51 | 360 | 0.0 | 2.0 | 0.00 | 0.00 | 0.00 | 48 | 1013.6 |
| 20260507013931 | 52 | 360 | 0.0 | 2.0 | 0.00 | 0.00 | 0.00 | 49 | 1013.5 |
| 20260507013423 | 52 | 360 | 0.0 | 4.0 | 0.00 | 0.00 | 0.00 | 47 | 1013.5 |
| 20260507012922 | 52 | 360 | 2.0 | 4.0 | 0.00 | 0.00 | 0.00 | 47 | 1013.4 |
| 20260507012443 | 52 | 360 | 1.0 | 4.0 | 0.00 | 0.00 | 0.00 | 45 | 1013.4 |
| 20260507011915 | 52 | 360 | 0.0 | 2.0 | 0.00 | 0.00 | 0.00 | 47 | 1013.5 |
| 20260507011414 | 53 | 360 | 0.0 | 2.0 | 0.00 | 0.00 | 0.00 | 45 | 1013.3 |
| 20260507010913 | 53 | 360 | 0.0 | 6.0 | 0.00 | 0.00 | 0.00 | 46 | 1013.2 |
| 20260507010415 | 53 | 360 | 1.0 | 6.0 | 0.00 | 0.00 | 0.00 | 45 | 1013.2 |
| 20260507005914 | 53 | 360 | 2.0 | 4.0 | 0.00 | 0.00 | 0.00 | 44 | 1013.2 |
| 20260507005435 | 53 | 360 | 1.0 | 4.0 | 0.00 | 0.00 | 0.00 | 45 | 1013.2 |
| 20260507004915 | 53 | 360 | 2.0 | 4.0 | 0.00 | 0.00 | 0.00 | 44 | 1013.1 |
| 20260507004415 | 53 | 360 | 2.0 | 4.0 | 0.00 | 0.00 | 0.00 | 44 | 1013.1 |
| 20260507003917 | 53 | 360 | 1.0 | 5.0 | 0.00 | 0.00 | 0.00 | 45 | 1013.1 |
| 20260507003418 | 53 | 360 | 0.0 | 5.0 | 0.00 | 0.00 | 0.00 | 45 | 1013.0 |
| 20260507002918 | 53 | 360 | 2.0 | 5.0 | 0.00 | 0.00 | 0.00 | 45 | 1013.0 |
| 20260507002417 | 54 | 360 | 0.0 | 3.0 | 0.00 | 0.00 | 0.00 | 45 | 1013.0 |
| 20260507001919 | 54 | 360 | 1.0 | 3.0 | 0.00 | 0.00 | 0.00 | 43 | 1013.0 |
| 20260507001438 | 54 | 360 | 1.0 | 3.0 | 0.00 | 0.00 | 0.00 | 43 | 1012.8 |
| 20260507000919 | 54 | 360 | 1.0 | 4.0 | 0.00 | 0.00 | 0.00 | 44 | 1012.9 |
| 20260507000438 | 54 | 360 | 0.0 | 5.0 | 0.00 | 0.00 | 0.00 | 44 | 1012.9 |
| 20260506235918 | 54 | 360 | 2.0 | 5.0 | 0.00 | 0.00 | 0.00 | 42 | 1012.9 |
| 20260506235418 | 54 | 360 | 0.0 | 3.0 | 0.00 | 0.00 | 0.00 | 43 | 1013.0 |
| 20260506234437 | 54 | 360 | 2.0 | 5.0 | 0.00 | 0.00 | 0.00 | 41 | 1012.9 |
| 20260506234000 | 54 | 360 | 2.0 | 5.0 | 0.00 | 0.00 | 0.00 | 41 | 1012.9 |
| 20260506233454 | 55 | 360 | 1.0 | 5.0 | 0.00 | 0.00 | 0.00 | 43 | 1012.9 |
| 20260506232954 | 55 | 360 | 1.0 | 5.0 | 0.00 | 0.00 | 0.00 | 43 | 1012.9 |
| 20260506232433 | 55 | 360 | 0.0 | 4.0 | 0.00 | 0.00 | 0.00 | 41 | 1012.8 |
| 20260506231932 | 55 | 360 | 1.0 | 3.0 | 0.00 | 0.00 | 0.00 | 42 | 1012.9 |
| 20260506231454 | 55 | 360 | 1.0 | 3.0 | 0.00 | 0.00 | 0.00 | 42 | 1012.8 |
| 20260506230952 | 55 | 360 | 0.0 | 3.0 | 0.00 | 0.00 | 0.00 | 40 | 1012.8 |
| 20260506230431 | 55 | 360 | 1.0 | 4.0 | 0.00 | 0.00 | 0.00 | 40 | 1012.9 |
| 20260506225932 | 56 | 360 | 2.0 | 4.0 | 0.00 | 0.00 | 0.00 | 39 | 1012.8 |
| 20260506225432 | 56 | 360 | 0.0 | 6.0 | 0.00 | 0.00 | 0.00 | 40 | 1012.8 |
| 20260506224933 | 56 | 360 | 3.0 | 6.0 | 0.00 | 0.00 | 0.00 | 39 | 1012.8 |
| 20260506224432 | 56 | 360 | 1.0 | 3.0 | 0.00 | 0.00 | 0.00 | 40 | 1012.9 |
| 20260506223952 | 56 | 360 | 1.0 | 4.0 | 0.00 | 0.00 | 0.00 | 39 | 1013.0 |
| 20260506223431 | 56 | 360 | 1.0 | 6.0 | 0.00 | 0.00 | 0.00 | 39 | 1013.0 |
| 20260506222932 | 56 | 360 | 2.0 | 6.0 | 0.00 | 0.00 | 0.00 | 39 | 1012.9 |
| 20260506222432 | 57 | 360 | 3.0 | 6.0 | 0.00 | 0.00 | 0.00 | 38 | 1012.8 |
| 20260506221951 | 57 | 360 | 3.0 | 5.0 | 0.00 | 0.00 | 0.00 | 39 | 1012.8 |
| 20260506221431 | 57 | 360 | 2.0 | 8.0 | 0.00 | 0.00 | 0.00 | 39 | 1012.9 |
| 20260506220933 | 57 | 360 | 3.0 | 8.0 | 0.00 | 0.00 | 0.00 | 37 | 1012.8 |
| 20260506220452 | 56 | 360 | 1.0 | 4.0 | 0.00 | 0.00 | 0.00 | 40 | 1012.8 |
| 20260506215931 | 56 | 360 | 2.0 | 4.0 | 0.00 | 0.00 | 0.00 | 39 | 1012.8 |
| 20260506215432 | 56 | 360 | 1.0 | 4.0 | 0.00 | 0.00 | 0.00 | 39 | 1012.8 |
| 20260506214932 | 56 | 360 | 1.0 | 4.0 | 0.00 | 0.00 | 0.00 | 40 | 1012.7 |
| 20260506214432 | 56 | 360 | 2.0 | 5.0 | 0.00 | 0.00 | 0.00 | 38 | 1012.8 |
| 20260506213954 | 56 | 360 | 2.0 | 5.0 | 0.00 | 0.00 | 0.00 | 38 | 1012.8 |
| 20260506213433 | 56 | 360 | 2.0 | 5.0 | 0.00 | 0.00 | 0.00 | 37 | 1012.8 |
| 20260506212933 | 56 | 360 | 2.0 | 4.0 | 0.00 | 0.00 | 0.00 | 38 | 1012.8 |
| 20260506212454 | 56 | 360 | 2.0 | 5.0 | 0.00 | 0.00 | 0.00 | 37 | 1012.8 |
| 20260506211934 | 56 | 360 | 1.0 | 5.0 | 0.00 | 0.00 | 0.00 | 38 | 1012.9 |
| 20260506211416 | 56 | 360 | 1.0 | 4.0 | 0.00 | 0.00 | 0.00 | 37 | 1012.8 |
| 20260506210937 | 56 | 360 | 1.0 | 5.0 | 0.00 | 0.00 | 0.00 | 38 | 1012.8 |
| 20260506210416 | 56 | 360 | 2.0 | 5.0 | 0.00 | 0.00 | 0.00 | 36 | 1012.9 |
| 20260506205916 | 57 | 360 | 1.0 | 6.0 | 0.00 | 0.00 | 0.00 | 36 | 1012.9 |
| 20260506205417 | 57 | 360 | 2.0 | 6.0 | 0.00 | 0.00 | 0.00 | 37 | 1012.9 |
| 20260506204930 | 57 | 360 | 1.0 | 6.0 | 0.00 | 0.00 | 0.00 | 36 | 1012.9 |
| 20260506204416 | 57 | 360 | 2.0 | 6.0 | 0.00 | 0.00 | 0.00 | 35 | 1013.0 |
| 20260506203936 | 57 | 360 | 1.0 | 8.0 | 0.00 | 0.00 | 0.00 | 35 | 1012.9 |
| 20260506203416 | 58 | 360 | 3.0 | 8.0 | 0.00 | 0.00 | 0.00 | 34 | 1013.1 |
| 20260506202936 | 58 | 360 | 3.0 | 6.0 | 0.00 | 0.00 | 0.00 | 36 | 1013.1 |
| 20260506202414 | 58 | 360 | 1.0 | 6.0 | 0.00 | 0.00 | 0.00 | 36 | 1013.1 |
| 20260506201914 | 57 | 360 | 2.0 | 5.0 | 0.00 | 0.00 | 0.00 | 36 | 1013.2 |
| 20260506201434 | 57 | 360 | 2.0 | 7.0 | 0.00 | 0.00 | 0.00 | 35 | 1013.2 |
| 20260506200951 | 57 | 318 | 1.0 | 7.0 | 0.00 | 0.00 | 0.00 | 35 | 1013.3 |
| 20260506200451 | 58 | 249 | 3.0 | 6.0 | 0.00 | 0.00 | 0.00 | 34 | 1013.3 |
| 20260506195930 | 58 | 284 | 2.0 | 8.0 | 0.00 | 0.00 | 0.00 | 36 | 1013.3 |
| 20260506195430 | 57 | 344 | 3.0 | 8.0 | 0.00 | 0.00 | 0.00 | 37 | 1013.2 |
| 20260506194930 | 57 | 360 | 3.0 | 8.0 | 0.00 | 0.00 | 0.00 | 36 | 1013.5 |
| 20260506194430 | 57 | 360 | 2.0 | 6.0 | 0.00 | 0.00 | 0.00 | 35 | 1013.4 |
| 20260506193931 | 57 | 360 | 3.0 | 6.0 | 0.00 | 0.00 | 0.00 | 35 | 1013.5 |
| 20260506193432 | 56 | 360 | 3.0 | 6.0 | 0.00 | 0.00 | 0.00 | 34 | 1013.5 |
| 20260506192932 | 56 | 360 | 2.0 | 10.0 | 0.00 | 0.00 | 0.00 | 39 | 1013.8 |
| 20260506192414 | 56 | 360 | 3.0 | 10.0 | 0.00 | 0.00 | 0.00 | 36 | 1013.7 |
| 20260506191935 | 56 | 360 | 3.0 | 10.0 | 0.00 | 0.00 | 0.00 | 34 | 1013.7 |
| 20260506191433 | 57 | 360 | 5.0 | 14.0 | 0.00 | 0.00 | 0.00 | 33 | 1013.8 |
| 20260506190915 | 57 | 360 | 3.0 | 11.0 | 0.00 | 0.00 | 0.00 | 34 | 1013.7 |
| 20260506190415 | 57 | 360 | 3.0 | 11.0 | 0.00 | 0.00 | 0.00 | 35 | 1013.7 |
| 20260506185916 | 57 | 360 | 3.0 | 11.0 | 0.00 | 0.00 | 0.00 | 34 | 1013.6 |
| 20260506185426 | 57 | 360 | 4.0 | 8.0 | 0.00 | 0.00 | 0.00 | 32 | 1013.8 |
| 20260506184923 | 57 | 360 | 2.0 | 8.0 | 0.00 | 0.00 | 0.00 | 34 | 1013.7 |
| 20260506184423 | 57 | 360 | 2.0 | 8.0 | 0.00 | 0.00 | 0.00 | 32 | 1013.9 |
| 20260506183941 | 57 | 360 | 2.0 | 5.0 | 0.00 | 0.00 | 0.00 | 31 | 1013.8 |
| 20260506183421 | 57 | 360 | 1.0 | 5.0 | 0.00 | 0.00 | 0.00 | 33 | 1013.8 |
| 20260506182921 | 57 | 360 | 2.0 | 8.0 | 0.00 | 0.00 | 0.00 | 35 | 1014.0 |
| 20260506182421 | 57 | 360 | 3.0 | 8.0 | 0.00 | 0.00 | 0.00 | 36 | 1013.8 |
| 20260506181941 | 57 | 360 | 2.0 | 8.0 | 0.00 | 0.00 | 0.00 | 37 | 1013.9 |
| 20260506181422 | 56 | 360 | 3.0 | 9.0 | 0.00 | 0.00 | 0.00 | 35 | 1013.8 |
| 20260506180923 | 56 | 360 | 2.0 | 9.0 | 0.00 | 0.00 | 0.00 | 36 | 1013.9 |
| 20260506180424 | 56 | 360 | 5.0 | 9.0 | 0.00 | 0.00 | 0.00 | 38 | 1013.8 |
| 20260506175943 | 56 | 360 | 3.0 | 6.0 | 0.00 | 0.00 | 0.00 | 36 | 1013.9 |
| 20260506175423 | 56 | 360 | 3.0 | 5.0 | 0.00 | 0.00 | 0.00 | 36 | 1013.9 |
| 20260506174923 | 56 | 360 | 2.0 | 8.0 | 0.00 | 0.00 | 0.00 | 35 | 1013.9 |
| 20260506174424 | 57 | 360 | 3.0 | 8.0 | 0.00 | 0.00 | 0.00 | 34 | 1013.9 |
| 20260506173922 | 57 | 315 | 3.0 | 6.0 | 0.00 | 0.00 | 0.00 | 37 | 1013.6 |
| 20260506173415 | 57 | 229 | 2.0 | 6.0 | 0.00 | 0.00 | 0.00 | 40 | 1013.7 |
| 20260506172914 | 57 | 319 | 2.0 | 6.0 | 0.00 | 0.00 | 0.00 | 38 | 1013.5 |
| 20260506172435 | 56 | 355 | 2.0 | 5.0 | 0.00 | 0.00 | 0.00 | 37 | 1013.5 |
| 20260506171933 | 56 | 360 | 2.0 | 5.0 | 0.00 | 0.00 | 0.00 | 38 | 1013.6 |
| 20260506171432 | 56 | 261 | 2.0 | 5.0 | 0.00 | 0.00 | 0.00 | 38 | 1013.6 |
| 20260506170914 | 56 | 360 | 1.0 | 3.0 | 0.00 | 0.00 | 0.00 | 37 | 1013.6 |
| 20260506170433 | 55 | 360 | 1.0 | 4.0 | 0.00 | 0.00 | 0.00 | 43 | 1013.7 |
| 20260506165932 | 55 | 360 | 1.0 | 4.0 | 0.00 | 0.00 | 0.00 | 40 | 1013.5 |
| 20260506165433 | 55 | 360 | 1.0 | 6.0 | 0.00 | 0.00 | 0.00 | 40 | 1013.6 |
| 20260506165022 | 55 | 360 | 3.0 | 9.0 | 0.00 | 0.00 | 0.00 | 39 | 1013.5 |
| 20260506164432 | 55 | 360 | 3.0 | 6.0 | 0.00 | 0.00 | 0.00 | 38 | 1013.5 |